Change the Weather History Date:

Tuesday, July 9, 2013

  Actual Average Record
Temperature  
Mean Temperature 64 °F -  
Max Temperature 84 °F 79 °F 95 °F (1976)
Min Temperature 45 °F 45 °F 37 °F (1959)
Growing Degree Days 14 (Base 50)    
Moisture  
Dew Point 33 °F    
Average Humidity 35    
Maximum Humidity 71    
Minimum Humidity 13    
Precipitation  
Precipitation 0.00 in - - ()
Sea Level Pressure  
Sea Level Pressure 30.05 in    
Wind  
Wind Speed 8 mph (West)    
Max Wind Speed 18 mph    
Max Gust Speed 25 mph    
Visibility 10 miles    
Events      
Averages and records for this station are not official NWS values.
T = Trace of Precipitation, MM = Missing Value Source: NWS Daily Summary

Daily Weather History Graph

Daily Weather History Graph

Search for Another Location

Airport or City:

Trip Planner

Search our weather history database for the weather conditions in past years. The results will help you decide how hot, cold, wet, or windy it might be!

Date:

Astronomy

Jul. 09, 2013 Rise Set
Actual Time 6:15 AM MDT 8:52 PM MDT
Civil Twilight 5:44 AM MDT 9:23 PM MDT
Nautical Twilight 5:06 AM MDT 10:01 PM MDT
Astronomical Twilight 4:23 AM MDT 10:44 PM MDT
Moon 7:40 AM MDT (7/9) 9:35 PM MDT (7/9)
Length of Visible Light 15h 38m
Length of Day
14h 37m
New Moon, 2% of the Moon is Illuminated
Jul 9
New Moon
Jul 15
First Quarter
Jul 22
Full
Jul 29
Last Quarter
Aug 6
New

Hourly Weather History & Observations

Time (MDT) Temp. Windchill Dew Point Humidity Pressure Visibility Wind Dir Wind Speed Gust Speed Precip Events Conditions
12:53 AM 54.0 °F - 39.9 °F 59% 30.04 in 10.0 mi West 8.1 mph - N/A   Clear
1:53 AM 53.1 °F - 37.9 °F 57% 30.04 in 10.0 mi Calm Calm - N/A   Clear
2:53 AM 50.0 °F - 39.0 °F 66% 30.04 in 10.0 mi West 8.1 mph - N/A   Clear
3:53 AM 48.0 °F - 37.9 °F 68% 30.05 in 10.0 mi WSW 6.9 mph - N/A   Clear
4:53 AM 46.0 °F 42.5 °F 37.0 °F 71% 30.05 in 10.0 mi West 6.9 mph - N/A   Clear
5:53 AM 45.0 °F - 36.0 °F 71% 30.06 in 10.0 mi Calm Calm - N/A   Partly Cloudy
6:53 AM 46.0 °F 41.4 °F 36.0 °F 68% 30.08 in 10.0 mi West 9.2 mph - N/A   Clear
7:53 AM 54.0 °F - 37.0 °F 53% 30.09 in 10.0 mi West 6.9 mph - N/A   Clear
8:53 AM 64.9 °F - 37.9 °F 37% 30.09 in 10.0 mi Calm Calm - N/A   Clear
9:53 AM 75.0 °F - 32.0 °F 21% 30.08 in 10.0 mi NE 4.6 mph - N/A   Clear
10:53 AM 78.1 °F - 28.9 °F 17% 30.07 in 10.0 mi SSW 5.8 mph - N/A   Scattered Clouds
11:53 AM 80.1 °F - 26.1 °F 14% 30.07 in 10.0 mi Calm Calm - N/A   Partly Cloudy
12:53 PM 81.0 °F - 26.1 °F 13% 30.06 in 10.0 mi WSW 11.5 mph 19.6 mph N/A   Scattered Clouds
1:53 PM 81.0 °F - 28.9 °F 15% 30.05 in 10.0 mi WSW 18.4 mph 24.2 mph N/A   Partly Cloudy
2:53 PM 84.9 °F - 30.0 °F 14% 30.03 in 10.0 mi WSW 18.4 mph 24.2 mph N/A   Partly Cloudy
3:53 PM 82.9 °F - 30.0 °F 15% 30.03 in 10.0 mi WSW 18.4 mph 21.9 mph N/A   Clear
4:05 PM 84.2 °F - 28.4 °F 13% 30.40 in 10.0 mi West 13.8 mph 20.7 mph N/A   Clear
4:53 PM 84.9 °F - 28.9 °F 13% 30.02 in 10.0 mi WSW 13.8 mph 25.3 mph N/A   Partly Cloudy
5:53 PM 84.0 °F - 28.0 °F 13% 30.01 in 10.0 mi NNW 9.2 mph - N/A   Clear
6:53 PM 82.0 °F - 28.9 °F 14% 30.01 in 10.0 mi NNW 9.2 mph - N/A   Clear
7:53 PM 79.0 °F - 28.9 °F 16% 29.99 in 10.0 mi West 11.5 mph - N/A   Clear
8:53 PM 72.0 °F - 26.1 °F 18% 29.99 in 10.0 mi NW 9.2 mph - N/A   Clear
9:53 PM 63.0 °F - 34.0 °F 34% 30.00 in 10.0 mi West 8.1 mph - N/A   Clear
10:53 PM 60.1 °F - 34.0 °F 38% 30.01 in 10.0 mi West 10.4 mph - N/A   Clear
11:53 PM 55.9 °F - 35.1 °F 45% 30.01 in 10.0 mi West 5.8 mph - N/A   Clear